AAL612 KMIA-KPHL

Flight info

Callsign AAL612
Flight time 2h 18m
Altitude 35000
Route FOLZZ3 ALYRA PELCN Y309 FLRDA IDOLS SKARP Q101 KALDA ZJAAY JIIMS4
Aircraft A321/M-SDE3FGHIRWY/LB1

Departure

Time 2026-05-04 19:56
Airport Miami International Airport (KMIA)

Arrival

Time 2026-05-04 22:14
Airport Philadelphia International Airport (KPHL)
Time Latitude Longitude Altitude Speed Heading
2026-05-04 19:34 25.79792 -80.27715 12 ft 0 kts 177°
2026-05-04 19:45 25.79806 -80.27716 12 ft 2 kts 177°
2026-05-04 19:45 25.79820 -80.27717 12 ft 2 kts 178°
2026-05-04 19:46 25.79836 -80.27718 12 ft 2 kts 177°
2026-05-04 19:46 25.79851 -80.27718 12 ft 2 kts 178°
2026-05-04 19:46 25.79866 -80.27718 12 ft 2 kts 201°
2026-05-04 19:46 25.79879 -80.27709 12 ft 2 kts 223°
2026-05-04 19:47 25.79888 -80.27696 12 ft 2 kts 248°
2026-05-04 19:47 25.79891 -80.27684 12 ft 0 kts 265°
2026-05-04 19:47 25.79891 -80.27676 12 ft 0 kts 268°
2026-05-04 19:49 25.79891 -80.27693 12 ft 7 kts 268°
2026-05-04 19:50 25.79887 -80.27786 12 ft 13 kts 266°
2026-05-04 19:50 25.79881 -80.27893 12 ft 14 kts 266°
2026-05-04 19:50 25.79885 -80.28002 12 ft 14 kts 288°
2026-05-04 19:50 25.79899 -80.28111 12 ft 13 kts 285°
2026-05-04 19:51 25.79984 -80.28148 12 ft 14 kts 358°
2026-05-04 19:51 25.80043 -80.28220 12 ft 14 kts 264°
2026-05-04 19:51 25.80035 -80.28336 12 ft 16 kts 268°
2026-05-04 19:51 25.80030 -80.28481 12 ft 20 kts 268°
2026-05-04 19:52 25.80023 -80.28637 12 ft 19 kts 267°
2026-05-04 19:52 25.80017 -80.28790 12 ft 19 kts 268°
2026-05-04 19:52 25.80010 -80.28954 12 ft 23 kts 266°
2026-05-04 19:52 25.80002 -80.29131 12 ft 22 kts 268°
2026-05-04 19:53 25.79996 -80.29304 12 ft 22 kts 268°
2026-05-04 19:53 25.79988 -80.29479 12 ft 24 kts 267°
2026-05-04 19:53 25.79979 -80.29693 12 ft 29 kts 268°
2026-05-04 19:53 25.79971 -80.29909 12 ft 18 kts 267°
2026-05-04 19:54 25.79969 -80.29949 12 ft 0 kts 271°
2026-05-04 19:54 25.79973 -80.29958 12 ft 3 kts 295°
2026-05-04 19:54 25.80004 -80.30063 12 ft 17 kts 286°
2026-05-04 19:54 25.80068 -80.30087 12 ft 14 kts 69°
2026-05-04 19:55 25.80084 -80.29862 12 ft 58 kts 86°
2026-05-04 19:55 25.80110 -80.29157 12 ft 120 kts 87°
2026-05-04 19:55 25.80152 -80.28033 51 ft 166 kts 86°
2026-05-04 19:55 25.80201 -80.26712 567 ft 172 kts 85°
2026-05-04 19:56 25.80223 -80.25382 1066 ft 181 kts 95°
2026-05-04 19:56 25.79757 -80.23971 1348 ft 205 kts 115°
2026-05-04 19:56 25.79025 -80.22534 1720 ft 222 kts 116°
2026-05-04 19:56 25.78232 -80.20976 2106 ft 239 kts 116°
2026-05-04 19:57 25.77420 -80.19299 2504 ft 256 kts 115°
2026-05-04 19:57 25.76574 -80.17543 3107 ft 263 kts 116°
2026-05-04 19:57 25.75695 -80.15775 3796 ft 266 kts 117°
2026-05-04 19:57 25.74789 -80.13950 4464 ft 270 kts 117°
2026-05-04 19:58 25.74176 -80.12009 5036 ft 274 kts 92°
2026-05-04 19:58 25.74480 -80.09930 5634 ft 277 kts 64°
2026-05-04 19:58 25.75538 -80.08241 6230 ft 280 kts 46°
2026-05-04 19:58 25.76845 -80.06647 6822 ft 286 kts 46°
2026-05-04 19:59 25.78193 -80.04990 7416 ft 292 kts 46°
2026-05-04 19:59 25.79544 -80.03307 8012 ft 297 kts 46°
2026-05-04 19:59 25.80933 -80.01565 8621 ft 301 kts 47°
2026-05-04 19:59 25.82315 -79.99821 9213 ft 306 kts 46°
2026-05-04 20:00 25.83635 -79.98148 9742 ft 310 kts 46°
2026-05-04 20:00 25.85015 -79.96398 10281 ft 315 kts 46°
2026-05-04 20:00 25.86487 -79.94530 10600 ft 329 kts 46°
2026-05-04 20:00 25.88030 -79.92573 10874 ft 344 kts 46°
2026-05-04 20:01 25.89643 -79.90527 11210 ft 357 kts 46°
2026-05-04 20:01 25.91262 -79.88461 11690 ft 362 kts 46°
2026-05-04 20:01 25.92919 -79.86348 12250 ft 365 kts 45°
2026-05-04 20:01 25.94591 -79.84218 12804 ft 368 kts 45°
2026-05-04 20:02 25.96296 -79.82043 13347 ft 371 kts 45°
2026-05-04 20:02 25.98002 -79.79868 13855 ft 375 kts 45°
2026-05-04 20:02 25.99713 -79.77688 14352 ft 378 kts 45°
2026-05-04 20:02 26.01451 -79.75472 14856 ft 381 kts 45°
2026-05-04 20:03 26.03205 -79.73231 15358 ft 384 kts 45°
2026-05-04 20:03 26.04946 -79.71004 15823 ft 388 kts 45°
2026-05-04 20:03 26.06721 -79.68735 16272 ft 391 kts 45°
2026-05-04 20:03 26.08536 -79.66415 16754 ft 394 kts 45°
2026-05-04 20:04 26.10315 -79.64090 17195 ft 398 kts 48°
2026-05-04 20:04 26.11979 -79.61639 17628 ft 402 kts 51°
2026-05-04 20:04 26.13525 -79.59219 18048 ft 405 kts 51°
2026-05-04 20:04 26.15136 -79.56664 18455 ft 408 kts 51°
2026-05-04 20:05 26.16783 -79.54054 18874 ft 411 kts 51°
2026-05-04 20:05 26.18420 -79.51465 19303 ft 414 kts 52°
2026-05-04 20:05 26.20092 -79.48825 19736 ft 416 kts 51°
2026-05-04 20:05 26.21714 -79.46262 20154 ft 418 kts 51°
2026-05-04 20:06 26.23344 -79.43690 20510 ft 422 kts 51°
2026-05-04 20:06 26.25040 -79.41010 20911 ft 424 kts 51°
2026-05-04 20:06 26.26741 -79.38326 21267 ft 427 kts 51°
2026-05-04 20:06 26.28621 -79.35747 21716 ft 424 kts 42°
2026-05-04 20:07 26.30798 -79.33559 22132 ft 421 kts 33°
2026-05-04 20:07 26.33184 -79.31731 22484 ft 420 kts 28°
2026-05-04 20:07 26.35674 -79.29979 22828 ft 422 kts 27°
2026-05-04 20:07 26.38156 -79.28250 23160 ft 425 kts 27°
2026-05-04 20:08 26.40701 -79.26469 23492 ft 429 kts 27°
2026-05-04 20:08 26.43203 -79.24705 23850 ft 431 kts 27°
2026-05-04 20:08 26.45749 -79.22899 24225 ft 432 kts 27°
2026-05-04 20:08 26.48296 -79.21088 24592 ft 434 kts 27°
2026-05-04 20:09 26.50754 -79.19338 24904 ft 437 kts 27°
2026-05-04 20:09 26.53337 -79.17493 25220 ft 439 kts 27°
2026-05-04 20:09 26.55914 -79.15653 25559 ft 441 kts 26°
2026-05-04 20:09 26.58487 -79.13815 25864 ft 443 kts 27°
2026-05-04 20:10 26.61089 -79.11954 26129 ft 446 kts 26°
2026-05-04 20:10 26.63739 -79.10055 26430 ft 449 kts 26°
2026-05-04 20:10 26.66268 -79.08245 26704 ft 451 kts 26°
2026-05-04 20:10 26.68911 -79.06351 26996 ft 453 kts 26°
2026-05-04 20:11 26.71584 -79.04434 27282 ft 455 kts 26°
2026-05-04 20:11 26.74270 -79.02509 27570 ft 457 kts 26°
2026-05-04 20:11 26.76920 -79.00604 27829 ft 459 kts 26°
2026-05-04 20:11 26.79632 -78.98656 28086 ft 461 kts 26°
2026-05-04 20:12 26.82330 -78.96716 28376 ft 462 kts 26°
2026-05-04 20:12 26.85064 -78.94750 28638 ft 464 kts 26°
2026-05-04 20:12 26.87771 -78.92805 28869 ft 467 kts 26°
2026-05-04 20:12 26.90535 -78.90814 29120 ft 468 kts 26°
2026-05-04 20:13 26.93261 -78.88851 29365 ft 470 kts 26°
2026-05-04 20:13 26.96016 -78.86865 29617 ft 472 kts 26°
2026-05-04 20:13 26.98803 -78.84857 29832 ft 475 kts 25°
2026-05-04 20:13 27.01428 -78.82964 30067 ft 476 kts 26°
2026-05-04 20:14 27.04199 -78.80963 30253 ft 479 kts 26°
2026-05-04 20:14 27.07006 -78.78936 30474 ft 480 kts 26°
2026-05-04 20:14 27.09803 -78.76913 30712 ft 482 kts 26°
2026-05-04 20:14 27.12659 -78.74845 30942 ft 483 kts 26°
2026-05-04 20:15 27.15502 -78.72785 31217 ft 483 kts 26°
2026-05-04 20:15 27.18320 -78.70743 31449 ft 484 kts 26°
2026-05-04 20:15 27.21181 -78.68679 31713 ft 483 kts 25°
2026-05-04 20:15 27.24076 -78.66827 31994 ft 477 kts 20°
2026-05-04 20:16 27.27075 -78.65249 32297 ft 471 kts 15°
2026-05-04 20:16 27.30139 -78.63967 32545 ft 466 kts 10°
2026-05-04 20:16 27.33215 -78.62988 32816 ft 460 kts
2026-05-04 20:16 27.36342 -78.62284 33057 ft 454 kts
2026-05-04 20:17 27.39463 -78.61822 33288 ft 451 kts 358°
2026-05-04 20:17 27.42592 -78.61427 33452 ft 453 kts 357°
2026-05-04 20:17 27.45719 -78.61041 33674 ft 453 kts 357°
2026-05-04 20:17 27.48733 -78.60663 33857 ft 454 kts 357°
2026-05-04 20:18 27.51919 -78.60261 34024 ft 456 kts 357°
2026-05-04 20:18 27.55069 -78.59859 34243 ft 456 kts 358°
2026-05-04 20:18 27.58218 -78.59454 34432 ft 457 kts 357°
2026-05-04 20:18 27.61360 -78.59046 34618 ft 458 kts 358°
2026-05-04 20:19 27.64558 -78.58631 34803 ft 459 kts 358°
2026-05-04 20:19 27.67737 -78.58219 34915 ft 461 kts 357°
2026-05-04 20:19 27.70928 -78.57804 35026 ft 461 kts 358°
2026-05-04 20:20 27.77287 -78.56976 35035 ft 462 kts 357°
2026-05-04 20:20 27.83547 -78.56155 35034 ft 461 kts 357°
2026-05-04 20:21 27.89951 -78.55320 35038 ft 461 kts 357°
2026-05-04 20:21 27.99293 -78.54097 35044 ft 460 kts 357°
2026-05-04 20:22 28.05695 -78.53259 35042 ft 460 kts 357°
2026-05-04 20:22 28.11945 -78.52439 35046 ft 460 kts 357°
2026-05-04 20:23 28.18115 -78.51628 35044 ft 459 kts 357°
2026-05-04 20:23 28.24319 -78.50815 35047 ft 461 kts 357°
2026-05-04 20:24 28.30578 -78.49990 35044 ft 461 kts 357°
2026-05-04 20:24 28.36930 -78.49152 35047 ft 460 kts 357°
2026-05-04 20:25 28.43303 -78.48312 35050 ft 461 kts 357°
2026-05-04 20:25 28.49682 -78.47469 35052 ft 462 kts 357°
2026-05-04 20:26 28.56081 -78.46623 35047 ft 460 kts 357°
2026-05-04 20:26 28.62454 -78.45779 35050 ft 460 kts 357°
2026-05-04 20:27 28.68836 -78.44933 35049 ft 461 kts 357°
2026-05-04 20:27 28.75215 -78.44087 35046 ft 461 kts 357°
2026-05-04 20:28 28.81593 -78.43237 35052 ft 460 kts 357°
2026-05-04 20:28 28.87959 -78.42390 35053 ft 461 kts 357°
2026-05-04 20:29 28.94338 -78.41542 35059 ft 463 kts 357°
2026-05-04 20:29 29.00763 -78.40685 35056 ft 463 kts 357°
2026-05-04 20:30 29.07140 -78.39832 35056 ft 462 kts 357°
2026-05-04 20:30 29.13506 -78.38981 35063 ft 461 kts 357°
2026-05-04 20:31 29.19923 -78.38122 35059 ft 460 kts 357°
2026-05-04 20:31 29.26254 -78.37274 35054 ft 461 kts 357°
2026-05-04 20:32 29.32650 -78.36417 35060 ft 461 kts 357°
2026-05-04 20:32 29.39051 -78.35556 35060 ft 461 kts 357°
2026-05-04 20:33 29.45307 -78.34743 35057 ft 458 kts 356°
2026-05-04 20:33 29.51622 -78.34508 35068 ft 449 kts 349°
2026-05-04 20:34 29.57860 -78.34907 35060 ft 446 kts 347°
2026-05-04 20:34 29.64057 -78.35381 35062 ft 446 kts 347°
2026-05-04 20:35 29.70237 -78.35848 35065 ft 447 kts 347°
2026-05-04 20:35 29.76490 -78.36316 35058 ft 447 kts 347°
2026-05-04 20:36 29.82685 -78.36776 35063 ft 446 kts 347°
2026-05-04 20:36 29.88862 -78.37236 35061 ft 446 kts 347°
2026-05-04 20:37 29.95054 -78.37698 35063 ft 445 kts 347°
2026-05-04 20:37 30.01261 -78.38163 35064 ft 445 kts 347°
2026-05-04 20:38 30.07415 -78.38623 35070 ft 445 kts 347°
2026-05-04 20:38 30.13642 -78.38779 35067 ft 452 kts 353°
2026-05-04 20:39 30.19986 -78.38141 35069 ft 458 kts 358°
2026-05-04 20:39 30.26298 -78.37187 35073 ft 458 kts 359°
2026-05-04 20:40 30.32668 -78.36220 35072 ft 459 kts 359°
2026-05-04 20:40 30.38702 -78.35312 35080 ft 458 kts 359°
2026-05-04 20:41 30.45038 -78.34125 35076 ft 463 kts
2026-05-04 20:41 30.51374 -78.32646 35075 ft 464 kts
2026-05-04 20:42 30.57661 -78.31165 35084 ft 463 kts
2026-05-04 20:42 30.64001 -78.29680 35083 ft 463 kts
2026-05-04 20:43 30.70267 -78.28213 35082 ft 463 kts
2026-05-04 20:43 30.76560 -78.26738 35087 ft 463 kts
2026-05-04 20:44 30.82908 -78.25249 35087 ft 464 kts
2026-05-04 20:44 30.89247 -78.23759 35086 ft 463 kts
2026-05-04 20:45 30.95578 -78.22284 35083 ft 463 kts
2026-05-04 20:45 31.01909 -78.20878 35094 ft 463 kts
2026-05-04 20:46 31.08237 -78.19479 35088 ft 462 kts
2026-05-04 20:46 31.14581 -78.18074 35092 ft 463 kts
2026-05-04 20:47 31.20888 -78.16670 35088 ft 464 kts
2026-05-04 20:47 31.27251 -78.15250 35086 ft 463 kts
2026-05-04 20:48 31.33598 -78.13831 35087 ft 463 kts
2026-05-04 20:48 31.39921 -78.12415 35091 ft 463 kts
2026-05-04 20:49 31.46212 -78.10971 35088 ft 463 kts
2026-05-04 20:49 31.52356 -78.09482 35086 ft 465 kts
2026-05-04 20:50 31.58688 -78.07941 35088 ft 463 kts
2026-05-04 20:50 31.64847 -78.06445 35086 ft 463 kts
2026-05-04 20:51 31.71137 -78.04920 35089 ft 463 kts
2026-05-04 20:51 31.77485 -78.03379 35087 ft 463 kts
2026-05-04 20:52 31.83809 -78.01842 35087 ft 463 kts
2026-05-04 20:52 31.89984 -78.00339 35093 ft 464 kts
2026-05-04 20:53 31.96308 -77.98798 35015 ft 463 kts
2026-05-04 20:53 32.02453 -77.97300 35069 ft 464 kts
2026-05-04 20:54 32.08805 -77.95748 35090 ft 465 kts
2026-05-04 20:54 32.15148 -77.94196 35100 ft 464 kts
2026-05-04 20:55 32.21491 -77.92641 35098 ft 465 kts
2026-05-04 20:55 32.27828 -77.91087 35091 ft 464 kts
2026-05-04 20:56 32.34144 -77.89533 35090 ft 464 kts
2026-05-04 20:56 32.40495 -77.87971 35092 ft 465 kts
2026-05-04 20:57 32.46808 -77.86415 35101 ft 465 kts
2026-05-04 20:57 32.53138 -77.84853 35105 ft 466 kts
2026-05-04 20:58 32.59501 -77.83278 35091 ft 465 kts
2026-05-04 20:58 32.65855 -77.81705 35096 ft 466 kts
2026-05-04 20:59 32.71975 -77.80189 35083 ft 465 kts
2026-05-04 20:59 32.78326 -77.78612 35101 ft 466 kts
2026-05-04 21:00 32.84663 -77.77037 35092 ft 465 kts
2026-05-04 21:00 32.91021 -77.75455 35099 ft 466 kts
2026-05-04 21:01 32.97357 -77.73876 35096 ft 467 kts
2026-05-04 21:01 33.03469 -77.72349 35096 ft 467 kts
2026-05-04 21:02 33.09827 -77.70756 35088 ft 465 kts
2026-05-04 21:02 33.16149 -77.69173 35084 ft 465 kts
2026-05-04 21:03 33.22481 -77.67584 35090 ft 466 kts
2026-05-04 21:03 33.28817 -77.65994 35089 ft 465 kts
2026-05-04 21:04 33.35161 -77.64397 35089 ft 465 kts
2026-05-04 21:04 33.41497 -77.62802 35092 ft 465 kts
2026-05-04 21:05 33.47805 -77.61211 35094 ft 464 kts
2026-05-04 21:05 33.54118 -77.59615 35087 ft 464 kts
2026-05-04 21:06 33.60466 -77.58138 35087 ft 460 kts
2026-05-04 21:06 33.66777 -77.56921 35088 ft 460 kts
2026-05-04 21:07 33.73090 -77.55718 35079 ft 460 kts
2026-05-04 21:07 33.79406 -77.54504 35073 ft 459 kts
2026-05-04 21:08 33.85727 -77.53283 35076 ft 459 kts
2026-05-04 21:08 33.91825 -77.52103 35072 ft 458 kts
2026-05-04 21:09 33.98138 -77.50882 35073 ft 458 kts
2026-05-04 21:09 34.04453 -77.49656 35070 ft 457 kts
2026-05-04 21:10 34.10720 -77.48438 35066 ft 458 kts
2026-05-04 21:10 34.17012 -77.47214 35058 ft 457 kts
2026-05-04 21:11 34.23072 -77.46033 35060 ft 457 kts
2026-05-04 21:11 34.29203 -77.44838 35054 ft 457 kts
2026-05-04 21:12 34.35462 -77.43615 35057 ft 456 kts
2026-05-04 21:12 34.41756 -77.42351 35050 ft 457 kts
2026-05-04 21:13 34.47959 -77.40465 35055 ft 462 kts 11°
2026-05-04 21:13 34.53997 -77.37685 35052 ft 467 kts 18°
2026-05-04 21:14 34.59863 -77.34167 35048 ft 470 kts 22°
2026-05-04 21:14 34.65696 -77.30532 35058 ft 471 kts 22°
2026-05-04 21:15 34.71540 -77.26900 35053 ft 470 kts 21°
2026-05-04 21:15 34.77340 -77.23301 35056 ft 470 kts 21°
2026-05-04 21:16 34.83161 -77.19688 35058 ft 469 kts 21°
2026-05-04 21:16 34.88948 -77.16093 35057 ft 469 kts 21°
2026-05-04 21:17 34.94770 -77.12466 35058 ft 469 kts 21°
2026-05-04 21:17 35.00586 -77.08845 35053 ft 470 kts 21°
2026-05-04 21:18 35.06449 -77.05182 35049 ft 469 kts 21°
2026-05-04 21:18 35.12236 -77.01562 35055 ft 470 kts 21°
2026-05-04 21:19 35.18085 -76.97894 35052 ft 469 kts 21°
2026-05-04 21:19 35.23869 -76.94265 35051 ft 468 kts 21°
2026-05-04 21:20 35.29732 -76.90675 35043 ft 468 kts 20°
2026-05-04 21:20 35.35545 -76.87151 35030 ft 469 kts 20°
2026-05-04 21:21 35.41390 -76.83591 35034 ft 469 kts 20°
2026-05-04 21:21 35.47244 -76.80017 35024 ft 469 kts 20°
2026-05-04 21:22 35.53107 -76.76430 35028 ft 470 kts 20°
2026-05-04 21:22 35.58915 -76.72868 35019 ft 469 kts 20°
2026-05-04 21:23 35.64768 -76.69278 35014 ft 469 kts 20°
2026-05-04 21:23 35.70606 -76.65688 35011 ft 470 kts 20°
2026-05-04 21:24 35.76463 -76.62079 35019 ft 470 kts 20°
2026-05-04 21:24 35.82287 -76.58486 35016 ft 469 kts 20°
2026-05-04 21:25 35.88126 -76.54879 35015 ft 469 kts 20°
2026-05-04 21:25 35.93934 -76.51121 35014 ft 471 kts 22°
2026-05-04 21:26 35.99664 -76.47226 35018 ft 471 kts 22°
2026-05-04 21:26 36.05418 -76.43320 35020 ft 471 kts 22°
2026-05-04 21:27 36.11187 -76.39412 35012 ft 472 kts 22°
2026-05-04 21:27 36.16948 -76.35508 35011 ft 471 kts 22°
2026-05-04 21:28 36.22712 -76.31599 35007 ft 472 kts 22°
2026-05-04 21:28 36.28434 -76.27713 35006 ft 471 kts 22°
2026-05-04 21:29 36.34197 -76.23790 35007 ft 471 kts 22°
2026-05-04 21:29 36.39938 -76.19875 35013 ft 470 kts 22°
2026-05-04 21:30 36.45689 -76.15949 34999 ft 470 kts 22°
2026-05-04 21:30 36.51383 -76.12054 34990 ft 470 kts 22°
2026-05-04 21:31 36.59955 -76.06177 34996 ft 469 kts 22°
2026-05-04 21:32 36.65702 -76.02230 34984 ft 468 kts 22°
2026-05-04 21:32 36.71377 -75.98324 34989 ft 467 kts 21°
2026-05-04 21:33 36.77064 -75.94403 34986 ft 467 kts 21°
2026-05-04 21:33 36.82724 -75.90498 34973 ft 467 kts 21°
2026-05-04 21:34 36.88406 -75.86569 34978 ft 467 kts 21°
2026-05-04 21:34 36.94085 -75.82633 34976 ft 467 kts 21°
2026-05-04 21:35 36.99800 -75.78745 34970 ft 464 kts 19°
2026-05-04 21:35 37.05670 -75.75583 34964 ft 455 kts 12°
2026-05-04 21:36 37.11700 -75.73341 34958 ft 446 kts
2026-05-04 21:36 37.17741 -75.71908 34963 ft 442 kts
2026-05-04 21:37 37.23846 -75.70628 34955 ft 444 kts
2026-05-04 21:37 37.29893 -75.69347 34964 ft 443 kts
2026-05-04 21:38 37.35987 -75.68044 34956 ft 442 kts
2026-05-04 21:38 37.42044 -75.66744 34945 ft 442 kts
2026-05-04 21:39 37.47983 -75.65466 34952 ft 441 kts
2026-05-04 21:39 37.54054 -75.64159 34942 ft 441 kts
2026-05-04 21:40 37.60083 -75.62856 34959 ft 442 kts
2026-05-04 21:40 37.66143 -75.61774 34954 ft 438 kts 359°
2026-05-04 21:41 37.72223 -75.61506 34955 ft 432 kts 352°
2026-05-04 21:41 37.78199 -75.61607 34948 ft 434 kts 357°
2026-05-04 21:42 37.84248 -75.60389 34946 ft 444 kts 10°
2026-05-04 21:42 37.90015 -75.57425 34944 ft 453 kts 24°
2026-05-04 21:43 37.95328 -75.53049 34946 ft 457 kts 30°
2026-05-04 21:43 38.00507 -75.48462 34956 ft 457 kts 30°
2026-05-04 21:44 38.05833 -75.44163 34961 ft 453 kts 24°
2026-05-04 21:44 38.11469 -75.40617 34961 ft 449 kts 19°
2026-05-04 21:45 38.17125 -75.37324 34972 ft 449 kts 19°
2026-05-04 21:45 38.22801 -75.34013 34974 ft 447 kts 20°
2026-05-04 21:46 38.28448 -75.30702 34966 ft 446 kts 20°
2026-05-04 21:46 38.34080 -75.27392 34970 ft 446 kts 20°
2026-05-04 21:47 38.39719 -75.24069 34967 ft 447 kts 20°
2026-05-04 21:47 38.45371 -75.20733 34972 ft 446 kts 20°
2026-05-04 21:48 38.50969 -75.17420 34964 ft 444 kts 20°
2026-05-04 21:48 38.56582 -75.14095 34952 ft 443 kts 20°
2026-05-04 21:49 38.62139 -75.10622 34814 ft 442 kts 22°
2026-05-04 21:49 38.64887 -75.08845 34095 ft 447 kts 22°
2026-05-04 21:49 38.67673 -75.07051 33172 ft 453 kts 22°
2026-05-04 21:49 38.70469 -75.05254 32431 ft 454 kts 22°
2026-05-04 21:50 38.73271 -75.03455 31766 ft 453 kts 22°
2026-05-04 21:50 38.76108 -75.01632 31077 ft 452 kts 22°
2026-05-04 21:50 38.78890 -74.99842 30400 ft 450 kts 22°
2026-05-04 21:50 38.81674 -74.98048 29869 ft 444 kts 22°
2026-05-04 21:51 38.84391 -74.96295 29335 ft 438 kts 22°
2026-05-04 21:51 38.87098 -74.94551 28751 ft 434 kts 22°
2026-05-04 21:51 38.89796 -74.92809 28136 ft 431 kts 22°
2026-05-04 21:51 38.92458 -74.91092 27529 ft 427 kts 22°
2026-05-04 21:52 38.95082 -74.89395 26912 ft 424 kts 22°
2026-05-04 21:52 38.97727 -74.87686 26312 ft 421 kts 22°
2026-05-04 21:52 39.00303 -74.86021 25717 ft 418 kts 22°
2026-05-04 21:52 39.02909 -74.84332 25077 ft 416 kts 21°
2026-05-04 21:53 39.05463 -74.82675 24486 ft 412 kts 21°
2026-05-04 21:53 39.08087 -74.81212 23824 ft 403 kts 10°
2026-05-04 21:53 39.10804 -74.80807 23209 ft 390 kts 353°
2026-05-04 21:53 39.13433 -74.81413 22662 ft 379 kts 340°
2026-05-04 21:54 39.15953 -74.82363 22000 ft 378 kts 340°
2026-05-04 21:54 39.18465 -74.83326 21478 ft 376 kts 340°
2026-05-04 21:54 39.20940 -74.84270 20981 ft 373 kts 340°
2026-05-04 21:54 39.23419 -74.85213 20481 ft 370 kts 340°
2026-05-04 21:55 39.25873 -74.86142 19967 ft 367 kts 340°
2026-05-04 21:55 39.28326 -74.87071 19460 ft 364 kts 340°
2026-05-04 21:55 39.30763 -74.87992 18956 ft 361 kts 340°
2026-05-04 21:55 39.33138 -74.88890 18501 ft 351 kts 340°
2026-05-04 21:56 39.35447 -74.89762 18101 ft 349 kts 340°
2026-05-04 21:56 39.37781 -74.90646 17607 ft 347 kts 340°
2026-05-04 21:56 39.40091 -74.91518 17167 ft 345 kts 340°
2026-05-04 21:56 39.42405 -74.92393 16726 ft 343 kts 340°
2026-05-04 21:57 39.44668 -74.93250 16297 ft 342 kts 340°
2026-05-04 21:57 39.46970 -74.94121 15851 ft 341 kts 339°
2026-05-04 21:57 39.49256 -74.94988 15392 ft 340 kts 339°
2026-05-04 21:57 39.51523 -74.95854 14936 ft 338 kts 338°
2026-05-04 21:58 39.53688 -74.96982 14500 ft 333 kts 330°
2026-05-04 21:58 39.55674 -74.98472 14048 ft 329 kts 323°
2026-05-04 21:58 39.57536 -75.00162 13613 ft 328 kts 321°
2026-05-04 21:58 39.59372 -75.01881 13178 ft 326 kts 321°
2026-05-04 21:59 39.61203 -75.03600 12707 ft 325 kts 321°
2026-05-04 21:59 39.63035 -75.05316 12269 ft 323 kts 321°
2026-05-04 21:59 39.64868 -75.07029 11808 ft 321 kts 321°
2026-05-04 21:59 39.66824 -75.08435 11328 ft 326 kts 337°
2026-05-04 22:00 39.69069 -75.08870 10902 ft 333 kts 357°
2026-05-04 22:00 39.71386 -75.08496 10526 ft 334 kts 11°
2026-05-04 22:00 39.73355 -75.07292 11167 ft 301 kts 31°
2026-05-04 22:00 39.74895 -75.05500 11067 ft 294 kts 40°
2026-05-04 22:01 39.76310 -75.03558 10488 ft 304 kts 43°
2026-05-04 22:01 39.77731 -75.01521 10073 ft 305 kts 43°
2026-05-04 22:01 39.79160 -74.99462 9740 ft 303 kts 43°
2026-05-04 22:01 39.80564 -74.97444 9424 ft 301 kts 44°
2026-05-04 22:02 39.81702 -74.95199 9087 ft 306 kts 66°
2026-05-04 22:02 39.82052 -74.92451 8764 ft 308 kts 93°
2026-05-04 22:02 39.81647 -74.89727 8447 ft 306 kts 105°
2026-05-04 22:02 39.81063 -74.87109 8138 ft 305 kts 108°
2026-05-04 22:03 39.80444 -74.84468 8008 ft 302 kts 108°
2026-05-04 22:03 39.79833 -74.81869 8013 ft 303 kts 108°
2026-05-04 22:03 39.79216 -74.79247 8034 ft 303 kts 108°
2026-05-04 22:03 39.78762 -74.76568 8039 ft 303 kts 91°
2026-05-04 22:04 39.79095 -74.73927 7823 ft 298 kts 65°
2026-05-04 22:04 39.80248 -74.71727 7373 ft 292 kts 38°
2026-05-04 22:04 39.81950 -74.70454 7010 ft 283 kts 11°
2026-05-04 22:04 39.83883 -74.70239 6622 ft 275 kts 352°
2026-05-04 22:05 39.85791 -74.70480 6219 ft 275 kts 348°
2026-05-04 22:05 39.87693 -74.70805 5856 ft 276 kts 348°
2026-05-04 22:05 39.89578 -74.71145 5529 ft 275 kts 348°
2026-05-04 22:05 39.91446 -74.71606 5196 ft 271 kts 335°
2026-05-04 22:06 39.92977 -74.72915 4834 ft 262 kts 307°
2026-05-04 22:06 39.93898 -74.74911 4512 ft 256 kts 291°
2026-05-04 22:06 39.94584 -74.77047 4175 ft 256 kts 288°
2026-05-04 22:06 39.95126 -74.79241 3837 ft 253 kts 277°
2026-05-04 22:07 39.95306 -74.81511 3522 ft 251 kts 266°
2026-05-04 22:07 39.95114 -74.83753 3229 ft 248 kts 258°
2026-05-04 22:07 39.94783 -74.85911 3084 ft 240 kts 256°
2026-05-04 22:07 39.94417 -74.87987 3005 ft 230 kts 255°
2026-05-04 22:08 39.94041 -74.89966 2993 ft 218 kts 254°
2026-05-04 22:08 39.93677 -74.91805 2987 ft 205 kts 253°
2026-05-04 22:08 39.93324 -74.93550 2980 ft 192 kts 253°
2026-05-04 22:08 39.92990 -74.95187 2975 ft 178 kts 253°
2026-05-04 22:09 39.92677 -74.96716 2987 ft 175 kts 253°
2026-05-04 22:09 39.92364 -74.98244 3062 ft 175 kts 253°
2026-05-04 22:09 39.92050 -74.99779 3058 ft 175 kts 252°
2026-05-04 22:09 39.91753 -75.01237 3025 ft 174 kts 253°
2026-05-04 22:10 39.91440 -75.02779 2929 ft 175 kts 253°
2026-05-04 22:10 39.91132 -75.04302 2706 ft 174 kts 253°
2026-05-04 22:10 39.90828 -75.05812 2489 ft 173 kts 253°
2026-05-04 22:10 39.90526 -75.07313 2283 ft 166 kts 253°
2026-05-04 22:11 39.90244 -75.08720 2067 ft 154 kts 252°
2026-05-04 22:11 39.89983 -75.10021 1851 ft 142 kts 252°
2026-05-04 22:11 39.89739 -75.11237 1664 ft 136 kts 252°
2026-05-04 22:11 39.89497 -75.12436 1503 ft 136 kts 252°
2026-05-04 22:12 39.89259 -75.13623 1337 ft 135 kts 252°
2026-05-04 22:12 39.89026 -75.14797 1163 ft 135 kts 253°
2026-05-04 22:12 39.88793 -75.15987 1003 ft 134 kts 253°
2026-05-04 22:12 39.88560 -75.17168 820 ft 134 kts 252°
2026-05-04 22:13 39.88322 -75.18322 656 ft 132 kts 252°
2026-05-04 22:13 39.88068 -75.19494 504 ft 133 kts 251°
2026-05-04 22:13 39.87848 -75.20647 321 ft 133 kts 254°
2026-05-04 22:13 39.87625 -75.21815 119 ft 132 kts 253°
2026-05-04 22:14 39.87399 -75.22929 17 ft 120 kts 252°
2026-05-04 22:14 39.87257 -75.23616 16 ft 34 kts 255°
2026-05-04 22:14 39.87294 -75.23721 15 ft 0 kts 341°
2026-05-04 22:14 39.87293 -75.23721 15 ft 2 kts 341°
2026-05-04 22:15 39.87319 -75.23734 15 ft 4 kts 335°
2026-05-04 22:15 39.87338 -75.23779 16 ft 7 kts 269°
2026-05-04 22:15 39.87326 -75.23851 16 ft 8 kts 256°
2026-05-04 22:15 39.87310 -75.23933 15 ft 9 kts 256°
2026-05-04 22:16 39.87293 -75.24020 16 ft 10 kts 255°
2026-05-04 22:16 39.87273 -75.24123 15 ft 13 kts 257°
2026-05-04 22:16 39.87317 -75.24209 15 ft 12 kts 330°
2026-05-04 22:16 39.87420 -75.24234 16 ft 16 kts 357°
2026-05-04 22:17 39.87474 -75.24287 16 ft 8 kts 283°
2026-05-04 22:17 39.87478 -75.24316 16 ft 0 kts 279°